Location: Ahstedt
(52.2048°N, 10.1060°E)
Time: 23:57:05
(UTC+00:00)

Cosmos 540 Rocket - Pass Details

Date: 17 April 2026
Orbit: 734 x 748 km, 74.1° (Epoch: 15 May)

Event Time Altitude Azimuth Distance (km) Brightness Sun altitude
Exits shadow 03:02:42 - 199° (SSW) 2,384 5.6 -11.2°
Reaches altitude 10° 03:03:02 10° 199° (SSW) 2,254 5.5 -11.2°
Maximum altitude 03:08:09 81° 113° (ESE) 763 3.6 -10.5°
Drops below altitude 10° 03:13:19 10° 27° (NNE) 2,277 7.0 -9.9°
Sets 03:15:41 0° 26° (NNE) 3,206 7.8 -9.6°
